Dalton, GA

12:15 AM EDT on October 20, 2017 (GMT -0400)
Dalton Municipal

Weather History for KDNN - February, 2013

Change the Weather History Date:

Saturday, February 2, 2013

  Actual Average Record
Temperature  
Mean Temperature 29 °F -  
Max Temperature 35 °F 54 °F 74 °F (1957)
Min Temperature 23 °F 33 °F 5 °F (1951)
Degree Days  
Heating Degree Days 36    
Moisture  
Dew Point 26 °F    
Average Humidity 88    
Maximum Humidity 100    
Minimum Humidity 60    
Precipitation  
Precipitation 0.00 in - - ()
Sea Level Pressure  
Sea Level Pressure 30.25 in    
Wind  
Wind Speed 1 mph (SSE)    
Max Wind Speed 8 mph    
Max Gust Speed -    
Visibility 9 miles    
Events Rain , Snow    
Averages and records for this station are not official NWS values.
T = Trace of Precipitation, MM = Missing Value Source: NWS Daily Summary

Daily Weather History Graph

Daily Weather History Graph

Search for Another Location

Airport or City:

Trip Planner

Search our weather history database for the weather conditions in past years. The results will help you decide how hot, cold, wet, or windy it might be!

Date:

Astronomy

Feb. 02, 2013 Rise Set
Actual Time 7:36 AM EST 6:10 PM EST
Civil Twilight 7:10 AM EST 6:36 PM EST
Nautical Twilight 6:40 AM EST 7:06 PM EST
Astronomical Twilight 6:10 AM EST 7:36 PM EST
Moon No Moon Rise 11:05 AM EST (2/2)
Length of Visible Light 11h 26m
Length of Day
10h 33m
Waning Gibbous, 60% of the Moon is Illuminated
Feb 2
Waning Gibbous
Feb 3
Last Quarter
Feb 10
New
Feb 17
First Quarter
Feb 25
Full

Hourly Weather History & Observations

Time (EST) Temp. Windchill Dew Point Humidity Pressure Visibility Wind Dir Wind Speed Gust Speed Precip Events Conditions
12:15 AM 28.4 °F - 17.6 °F 64% 30.37 in 10.0 mi Calm Calm - N/A   Clear
12:35 AM 26.6 °F - 17.6 °F 69% 30.38 in 10.0 mi Calm Calm - N/A   Scattered Clouds
12:55 AM 26.6 °F - 17.6 °F 69% 30.36 in 10.0 mi Calm Calm - N/A   Clear
1:15 AM 26.6 °F - 17.6 °F 69% 30.35 in 10.0 mi Calm Calm - N/A   Scattered Clouds
1:35 AM 24.8 °F - 17.6 °F 74% 30.34 in 10.0 mi Calm Calm - N/A   Scattered Clouds
1:55 AM 24.8 °F - 17.6 °F 74% 30.34 in 10.0 mi Calm Calm - N/A   Scattered Clouds
2:15 AM 23.0 °F - 19.4 °F 86% 30.34 in 10.0 mi Calm Calm - N/A   Scattered Clouds
2:35 AM 24.8 °F - 19.4 °F 80% 30.34 in 10.0 mi Calm Calm - N/A   Scattered Clouds
2:55 AM 24.8 °F - 17.6 °F 74% 30.34 in 10.0 mi Calm Calm - N/A   Clear
3:15 AM 23.0 °F - 19.4 °F 86% 30.34 in 10.0 mi Calm Calm - N/A   Clear
3:35 AM 23.0 °F - 19.4 °F 86% 30.34 in 10.0 mi Calm Calm - N/A   Clear
3:55 AM 23.0 °F - 19.4 °F 86% 30.34 in 10.0 mi Calm Calm - N/A   Clear
4:15 AM 23.0 °F - 21.2 °F 93% 30.34 in 10.0 mi Calm Calm - N/A   Clear
4:35 AM 23.0 °F - 19.4 °F 86% 30.34 in 10.0 mi Calm Calm - N/A   Scattered Clouds
4:55 AM 23.0 °F - 21.2 °F 93% 30.33 in 10.0 mi Calm Calm - N/A   Scattered Clouds
5:15 AM 23.0 °F - 21.2 °F 93% 30.33 in 10.0 mi Calm Calm - N/A   Clear
5:35 AM 23.0 °F - 21.2 °F 93% 30.33 in 10.0 mi Calm Calm - N/A   Scattered Clouds
5:55 AM 23.0 °F - 21.2 °F 93% 30.33 in 10.0 mi Calm Calm - N/A   Scattered Clouds
6:15 AM 23.0 °F - 21.2 °F 93% 30.33 in 10.0 mi Calm Calm - N/A   Scattered Clouds
6:35 AM 23.0 °F - 21.2 °F 93% 30.33 in 10.0 mi Calm Calm - N/A   Scattered Clouds
7:15 AM 23.0 °F - 21.2 °F 93% 30.33 in 10.0 mi Calm Calm - N/A   Scattered Clouds
7:35 AM 23.0 °F - 21.2 °F 93% 30.33 in 10.0 mi Calm Calm - N/A   Scattered Clouds
7:55 AM 24.8 °F - 21.2 °F 86% 30.32 in 10.0 mi Calm Calm - N/A   Mostly Cloudy
8:15 AM 26.6 °F - 19.4 °F 74% 30.32 in 10.0 mi Calm Calm - N/A   Mostly Cloudy
8:35 AM 26.6 °F - 19.4 °F 74% 30.31 in 10.0 mi Calm Calm - N/A   Mostly Cloudy
8:55 AM 28.4 °F 24.6 °F 19.4 °F 69% 30.31 in 10.0 mi South 3.5 mph - N/A   Overcast
9:15 AM 30.2 °F 26.7 °F 19.4 °F 64% 30.31 in 10.0 mi SW 3.5 mph - N/A   Mostly Cloudy
9:35 AM 30.2 °F 26.7 °F 19.4 °F 64% 30.32 in 10.0 mi SSW 3.5 mph - N/A   Overcast
9:55 AM 30.2 °F - 19.4 °F 64% 30.34 in 10.0 mi Calm Calm - N/A   Overcast
10:15 AM 30.2 °F 25.4 °F 19.4 °F 64% 30.36 in 10.0 mi NW 4.6 mph - N/A   Overcast
10:35 AM 32.0 °F - 21.2 °F 64% 30.37 in 10.0 mi Calm Calm - N/A   Overcast
10:55 AM 32.0 °F 28.7 °F 21.2 °F 64% 30.36 in 10.0 mi NNW 3.5 mph - N/A   Overcast
11:15 AM 32.0 °F - 19.4 °F 60% 30.35 in 10.0 mi Calm Calm - N/A   Overcast
11:35 AM 32.0 °F - 19.4 °F 60% 30.34 in 10.0 mi Calm Calm - N/A   Overcast
11:55 AM 32.0 °F 25.6 °F 23.0 °F 69% 30.31 in 2.5 mi SE 6.9 mph - N/A Snow Light Snow
12:15 PM 30.2 °F 24.3 °F 26.6 °F 86% 30.28 in 10.0 mi ESE 5.8 mph - N/A Snow Light Snow
12:35 PM 30.2 °F 22.6 °F 28.4 °F 93% 30.26 in 10.0 mi SSE 8.1 mph - N/A   Overcast
12:55 PM 30.2 °F 24.3 °F 28.4 °F 93% 30.22 in 7.0 mi SSE 5.8 mph - N/A   Overcast
1:15 PM 32.0 °F 28.7 °F 28.4 °F 87% 30.21 in 10.0 mi South 3.5 mph - N/A   Overcast
1:35 PM 32.0 °F 28.7 °F 30.2 °F 93% 30.20 in 10.0 mi SSW 3.5 mph - N/A   Overcast
1:55 PM 32.0 °F 28.7 °F 30.2 °F 93% 30.20 in 10.0 mi South 3.5 mph - N/A   Overcast
2:15 PM 32.0 °F - 30.2 °F 93% 30.19 in 10.0 mi Calm Calm - N/A   Overcast
2:35 PM 32.0 °F - 30.2 °F 93% 30.18 in 7.0 mi Calm Calm - N/A Rain Light Rain
2:55 PM 32.0 °F - 32.0 °F 100% 30.17 in 10.0 mi Calm Calm - N/A   Light Drizzle
3:15 PM 32.0 °F - 32.0 °F 100% 30.16 in 7.0 mi Calm Calm - N/A Rain Rain
3:35 PM 32.0 °F 27.5 °F 32.0 °F 100% 30.15 in 7.0 mi South 4.6 mph - N/A Rain Light Rain
3:55 PM 33.8 °F 30.8 °F 32.0 °F 93% 30.14 in 10.0 mi South 3.5 mph - N/A   Overcast
4:15 PM 33.8 °F 30.8 °F 33.8 °F 100% 30.13 in 10.0 mi South 3.5 mph - N/A   Overcast
4:35 PM 33.8 °F - 33.8 °F 100% 30.15 in 7.0 mi Calm Calm - N/A Rain Light Rain
4:55 PM 33.8 °F - 33.8 °F 100% 30.15 in 5.0 mi Calm Calm - N/A Rain Light Rain
5:15 PM 33.8 °F - 33.8 °F 100% 30.15 in 7.0 mi Calm Calm - N/A Rain Light Rain
5:35 PM 33.8 °F 29.6 °F 33.8 °F 100% 30.15 in 10.0 mi SSE 4.6 mph - N/A Rain Rain
5:55 PM 33.8 °F 28.6 °F 33.8 °F 100% 30.14 in 10.0 mi SSE 5.8 mph - N/A Rain Rain
6:15 PM 33.8 °F 28.6 °F 33.8 °F 100% 30.14 in 10.0 mi SE 5.8 mph - N/A   Overcast
6:35 PM 33.8 °F 27.7 °F 33.8 °F 100% 30.13 in 10.0 mi SE 6.9 mph - N/A   Overcast
6:55 PM 33.8 °F 28.6 °F 33.8 °F 100% 30.14 in 10.0 mi SE 5.8 mph - N/A   Overcast
7:15 PM 35.6 °F 32.8 °F 35.6 °F 100% 30.15 in 10.0 mi SSE 3.5 mph - N/A   Overcast
7:35 PM 35.6 °F 30.7 °F 35.6 °F 100% 30.14 in 10.0 mi SE 5.8 mph - N/A   Overcast
7:55 PM 35.6 °F 30.7 °F 35.6 °F 100% 30.14 in 10.0 mi SE 5.8 mph - N/A   Overcast
8:15 PM 35.6 °F 31.7 °F 35.6 °F 100% 30.15 in 10.0 mi SE 4.6 mph - N/A   Overcast
8:35 PM 35.6 °F 32.8 °F 35.6 °F 100% 30.14 in 10.0 mi SE 3.5 mph - N/A   Overcast
8:55 PM 35.6 °F 32.8 °F 35.6 °F 100% 30.15 in 10.0 mi SE 3.5 mph - N/A   Overcast
9:15 PM 35.6 °F 32.8 °F 35.6 °F 100% 30.15 in 10.0 mi SE 3.5 mph - N/A   Overcast
9:35 PM 35.6 °F - 35.6 °F 100% 30.15 in 10.0 mi Calm Calm - N/A   Overcast
9:55 PM 35.6 °F 32.8 °F 35.6 °F 100% 30.15 in 10.0 mi SE 3.5 mph - N/A   Scattered Clouds
10:15 PM 35.6 °F - 35.6 °F 100% 30.15 in 10.0 mi Calm Calm - N/A   Clear
10:35 PM 33.8 °F - 33.8 °F 100% 30.15 in 4.0 mi Calm Calm - N/A   Clear
10:55 PM 32.0 °F - 32.0 °F 100% 30.15 in 2.0 mi Calm Calm - N/A   Clear
11:15 PM 32.0 °F - 32.0 °F 100% 30.15 in 2.5 mi Calm Calm - N/A   Mostly Cloudy
11:35 PM 32.0 °F - 32.0 °F 100% 30.15 in 3.0 mi Calm Calm - N/A   Mostly Cloudy
11:55 PM 32.0 °F - 32.0 °F 100% 30.15 in 2.0 mi Calm Calm - N/A   Mostly Cloudy